Flag for U.S.A. Weather past 2 weeks in Brockton, Massachusetts, U.S.A.

Now
76 °F

Mild.


Feels Like: 78 °F
Forecast: 55 / 78 °F
Wind: 8 mph from Northeast

Location: East Milton

Current Time: Aug 20, 2014 at 4:41:19 PM

Latest Report: Aug 20, 2014 at 3:54 PM


Visibility: N/A

Pressure: 30.04 "Hg

Humidity: 43%

Dew point: 52 °F

Location of BrocktonLocation

Historic Weather in Brockton — Graph

°F

Brockton temperature yesterday

Maximum temperature yesterday: 77 °F (at 3:54 PM)
Minimum temperature yesterday: 55 °F (at 4:54 AM)
Average temperature yesterday: 65 °F

Past Weeks' High & Low Weather Summary

 TemperatureHumidityPressure
High86 °F (Aug 5, 2:54 PM)100% (Aug 6, 7:54 AM)30.19 "Hg (Aug 6, 7:54 AM)
Low55 °F (Aug 19, 4:54 AM)32% (Aug 10, 12:54 PM)29.64 "Hg (Aug 13, 7:54 PM)
Average68 °F69%29.96 "Hg
* Reported Aug 5 2:54 PM — Aug 20 2:54 PM, Brockton, Weather by CustomWeather, © 2014

Note: Actual official high and low records may vary slightly from our data, if they occured in-between our weather recording intervals... More about our weather records

Advertising

Brockton weather history for previous 24 hours

 ConditionsComfort  
Time TempWeatherWind HumidityBarometerVisibility
2:54 PM
Aug 20
77 °FWarm.9 mph44%30.03 "HgN/A
1:54 PM78 °FWarm.8 mph43%30.05 "HgN/A
12:54 PM76 °FMild.8 mph47%30.05 "HgN/A
11:54 AM76 °FMild.9 mph50%30.05 "HgN/A
10:54 AM73 °FMild.7 mph55%30.05 "HgN/A
9:54 AM71 °FMild.6 mph66%30.04 "HgN/A
8:54 AM66 °FMild.6 mph75%30.03 "HgN/A
7:54 AM64 °FMild.3 mph78%30.03 "HgN/A
6:54 AM59 °FCool.8 mph90%30.03 "HgN/A
5:54 AM59 °FCool.7 mph90%30.01 "HgN/A
4:54 AM59 °FCool.9 mph87%29.99 "HgN/A
3:54 AM60 °FCool.9 mph90%29.99 "HgN/A
2:54 AM62 °FCool.9 mph86%29.98 "HgN/A
1:54 AM61 °FCool.8 mph90%29.99 "HgN/A
12:54 AM62 °FCool.9 mph80%29.99 "HgN/A
11:54 PM
Aug 19
62 °FCool.9 mph75%29.99 "HgN/A
10:54 PM61 °FCool.8 mph78%29.98 "HgN/A
9:54 PM63 °FMild.10 mph70%29.97 "HgN/A
8:54 PM64 °FMild.12 mph68%29.97 "HgN/A
7:54 PM66 °FMild.9 mph65%29.96 "HgN/A
6:54 PM69 °FMild.9 mph61%29.95 "HgN/A
5:54 PM73 °FMild.6 mph51%29.94 "HgN/A
4:54 PM76 °FMild.3 mph40%29.93 "HgN/A
Weather by CustomWeather, © 2014

See weather overviewHow to use our weather pages